Content
SEND FEEDBACK

Daily
Averages
Monthly
Summary
United States of America

BEDFORD PARK, ILLINOIS


Home > North America > United States > Illinois
Elevation: 623 feet     Latitude: 41 46N     Longitude: 087 45W

WEATHER
 
SELECT A DAY
Number of Records: 193,854;   Date Range: 1/1/95 - 12/17/14
 
SHARE

PRINT THIS DATA

[ ← Previous Day ]
WEATHER ALMANAC - JANUARY 11, 2013
[ Next Day → ]
[ °C ]   °F
Weather ElementAverageHighLow
Temperature51.2 °F54 °F (5:51 am)46.4 °F (2:12 am)
Dewpoint47.7 °F53.6 °F (6:33 am)45 °F (1:51 am)
Humidity88 %100 % (2:12 am)80 % (3:51 pm)
Barometer29.75 in29.82 in (1:51 am)29.68 in (4:45 am)
Wind Speed12.9 mph18.4 mph (8:51 am)
Wind Gust26.5 mph (7:51 pm)
Weather ElementAverage
Visibility6.8 mi
Wind DirectionSSW (194.7 °)

Weather ElementTotal
Precipitation0.23 in
Heating Degree Days14.8 (Base 65)
Growing Degree Days0.2 (Base 50)
Averaged from 32 records on January 11, 2013
WEATHER CONDITIONS BREAKOUT
WIND DIRECTION BREAKOUT
WEATHER BY HOUR - JANUARY 11, 2013
[ °C ]   °F
Local TimeTemperatureDewpointHumidityBarometerVisibilityWind DirectionWind SpeedGust SpeedPrecipitationEventsConditions
1:51 AM46.9 °F45.0 °F93 %29.82 in1.5 miSE (140°)11.5 mph0.05 inRainLight Rain
2:12 AM46.4 °F46.4 °F100 %29.80 in2.0 miSSE (150°)11.5 mph0.01 inOvercast
2:51 AM48.9 °F46.9 °F93 %29.80 in2.0 miSSE (160°)13.8 mph0.05 inRainLight Rain
3:51 AM50.0 °F48.9 °F96 %29.75 in2.5 miSouth (170°)9.2 mph0.03 inOvercast
4:45 AM51.8 °F50.0 °F94 %29.68 in3.0 miSSE (150°)9.2 mph0.01 inRainLight Rain
4:51 AM51.1 °F50.0 °F96 %29.68 in3.0 miSSE (160°)5.8 mph0.01 inRainLight Rain
5:51 AM54.0 °F52.0 °F93 %29.70 in3.0 miSSW (200°)9.2 mph0.00 inOvercast
6:33 AM53.6 °F53.6 °F100 %29.69 in2.0 miSSW (200°)11.5 mphOvercast
6:51 AM54.0 °F53.1 °F97 %29.70 in2.0 miSSW (200°)12.7 mphOvercast
7:51 AM54.0 °F52.0 °F93 %29.74 in2.5 miSW (220°)12.7 mph0.03 inRainLight Rain
8:09 AM53.6 °F51.8 °F94 %29.73 in6.0 miWSW (240°)17.3 mph24.2 mph0.02 inRainLight Rain
8:51 AM52.0 °F48.9 °F89 %29.76 in10.0 miWSW (250°)18.4 mph25.3 mph0.02 inOvercast
9:51 AM50.0 °F48.0 °F93 %29.79 in10.0 miWSW (240°)10.4 mph23.0 mphOvercast
10:51 AM48.9 °F46.0 °F90 %29.80 in4.0 miSW (230°)15.0 mph24.2 mphOvercast
11:51 AM48.0 °F46.0 °F93 %29.77 in5.0 miSW (220°)15.0 mphOvercast
12:51 PM48.9 °F46.0 °F90 %29.78 in3.0 miSSW (210°)10.4 mphOvercast
1:35 PM50.0 °F46.4 °F87 %29.76 in10.0 miSSW (210°)12.7 mphOvercast
1:51 PM51.1 °F46.0 °F83 %29.77 in8.0 miSSW (200°)10.4 mph19.6 mphOvercast
2:04 PM51.8 °F46.4 °F82 %29.77 in10.0 miSSW (210°)15.0 mph20.7 mphOvercast
2:16 PM51.8 °F46.4 °F82 %29.78 in10.0 miSSW (210°)15.0 mphOvercast
2:51 PM51.1 °F46.0 °F83 %29.78 in10.0 miSouth (190°)10.4 mphOvercast
3:24 PM51.8 °F46.4 °F82 %29.75 in10.0 miSouth (180°)10.4 mphOvercast
3:51 PM52.0 °F46.0 °F80 %29.76 in10.0 miSouth (190°)12.7 mphOvercast
4:51 PM52.0 °F46.9 °F83 %29.75 in9.0 miSouth (180°)12.7 mphMostly Cloudy
5:31 PM51.8 °F46.4 °F82 %29.74 in10.0 miSouth (170°)13.8 mphMostly Cloudy
5:51 PM52.0 °F46.9 °F83 %29.73 in10.0 miSouth (180°)15.0 mphMostly Cloudy
6:51 PM52.0 °F46.0 °F80 %29.75 in10.0 miSouth (190°)17.3 mph23.0 mphOvercast
7:51 PM52.0 °F46.0 °F80 %29.74 in10.0 miSouth (190°)15.0 mph26.5 mphMostly Cloudy
8:51 PM52.0 °F46.9 °F83 %29.74 in10.0 miSouth (190°)15.0 mph23.0 mphOvercast
9:51 PM52.0 °F46.0 °F80 %29.74 in10.0 miSSW (200°)13.8 mphOvercast
10:51 PM52.0 °F46.0 °F80 %29.74 in10.0 miSSW (200°)13.8 mph20.7 mphMostly Cloudy
11:51 PM51.1 °F46.0 °F83 %29.74 in10.0 miSSW (200°)16.1 mph24.2 mphMostly Cloudy
Hourly data recorded from KMDW, located miles away from Bedford Park, Illinois







STORIES FROM OUR PARTNERS